Location: Calas
(43.4616°N, 5.3523°E)
Time: 18:41:39
(UTC+00:00)

Daily predictions for brighter satellites

Satellite Brightness Start Highest point End
(mag) Time Altitude Azimuth Time Altitude Azimuth Time Altitude Azimuth
Cosmos 2112 Rocket 4.2 16:43:00 10° S 16:48:01 51° ESE 16:53:05 10° NNE
Cosmos 1633 2.6 16:45:25 10° N 16:49:02 59° E 16:52:36 10° SSE
SL-8 R/B 4.5 16:45:11 10° SSW 16:49:39 40° SE 16:54:06 10° ENE
CZ-4B R/B 4.2 16:47:31 10° NNW 16:49:54 18° WNW 16:52:17 10° WSW
CORIOLIS 4.3 16:44:52 10° SE 16:50:07 54° ENE 16:55:25 10° N
Cosmos 1356 Rocket 3.7 16:47:03 10° SSW 16:51:14 74° W 16:55:31 10° N
Cosmos 1680 Rocket 3.5 16:47:55 10° S 16:53:05 67° ESE 16:58:18 10° NNE
Cosmos 1464 Rocket 4.0 16:47:56 10° N 16:54:02 64° E 17:00:06 10° SSE
Cosmos 1606 4.4 16:53:05 10° ESE 16:55:10 14° E 16:56:56 11° ENE
NOAA 12 4.4 16:51:53 10° SE 16:56:56 46° ENE 17:02:00 10° N
YAOGAN 1 4.0 16:58:06 10° ESE 17:00:58 18° ENE 17:03:50 10° NNE
ALOS 4.5 16:57:58 10° SSW 17:02:04 30° W 17:06:11 10° NNW
CZ-4 R/B 2.6 16:59:30 10° ESE 17:02:36 21° ENE 17:05:39 10° NNE
Cosmos 1470 Rocket 4.1 17:00:17 10° N 17:04:28 36° ENE 17:08:35 10° SE
SMAP 3.0 17:00:42 10° SSE 17:05:22 86° ENE 17:10:03 10° NNW
AQUARIUS 4.1 17:01:05 10° SSE 17:05:34 79° ENE 17:10:06 10° N
GEOS 3 Rocket 4.2 17:00:52 10° NE 17:05:45 39° ESE 17:10:39 10° S
Cosmos 1072 Rocket 4.5 16:59:56 10° N 17:06:08 86° E 17:12:22 10° S
Cosmos 724 4.2 17:00:26 10° NNW 17:06:19 83° ENE 17:12:05 10° SE
Cosmos 1980 Rocket 2.3 17:01:49 10° S 17:07:23 63° ESE 17:13:01 10° NNE
USA 215 4.4 17:04:32 11° NE 17:09:34 27° N 17:14:51 10° NW
SL-16 R/B 3.5 17:05:40 10° SE 17:09:37 20° E 17:12:09 15° ENE
Cosmos 397 4.5 17:06:56 10° NNW 17:11:00 87° WSW 17:15:24 10° SSE
GPS 2-04 Rocket1 4.3 17:08:58 10° SW 17:11:43 22° S 17:14:26 10° SE
Cosmos 1862 3.3 17:08:30 10° N 17:12:30 90° W 17:16:30 10° S
Cosmos 1933 4.1 17:10:03 10° SSE 17:13:37 30° E 17:17:11 10° NNE
Lacrosse 4 Rocket 3.0 17:11:22 10° WSW 17:14:59 30° NW 17:18:37 10° N
Cosmos 2322 Rocket 3.5 17:11:41 10° SE 17:15:26 19° E 17:17:03 17° ENE
Cosmos 2297 Rocket 4.3 17:10:52 10° NW 17:15:48 32° WSW 17:20:42 10° SSW
Cosmos 2227 Rocket 4.1 17:11:47 10° NW 17:16:49 34° WSW 17:21:49 10° SSW
NOSS 2-3 (E) 4.4 17:15:21 10° SW 17:19:38 54° NW 17:24:41 10° NNE
SeaSat 1 2.9 17:16:22 10° ESE 17:20:55 39° NE 17:25:30 10° NNW
Cosmos 1624 Rocket 4.0 17:19:44 10° NNW 17:25:04 69° ENE 17:30:22 10° SSE
BREEZE-M DEB (TANK) 3.5 17:18:28 10° W 17:26:07 41° NNW 17:27:57 22° NE
Cosmos 2056 Rocket 3.4 17:21:24 10° NNW 17:26:33 68° ENE 17:31:43 10° SSE
SKYMED 2 3.8 17:23:06 10° NNE 17:27:17 45° E 17:31:26 10° S
NOSS 3-1 (A) 4.4 17:23:12 10° WSW 17:28:31 42° NW 17:34:40 10° NNE
Cosmos 2263 Rocket 2.6 17:24:10 10° NNW 17:29:23 39° ENE 17:34:35 10° SE
YAOGAN 6 2.7 17:29:40 10° SSE 17:33:00 46° ENE 17:36:23 10° N
H-2A R/B 3.8 17:29:25 10° S 17:33:07 48° W 17:36:49 10° NNW
Cosmos 1697 Rocket 3.9 17:39:12 10° SW 17:44:28 39° WNW 17:49:46 10° NNE
Envisat 3.1 17:42:37 10° S 17:47:41 79° WSW 17:52:48 10° NNW
CENTAUR R/B 4.1 17:42:50 10° NNW 17:49:02 25° NNE 17:51:27 22° NE
Cosmos 1400 Rocket 3.3 17:45:38 10° SSE 17:49:29 40° E 17:49:31 40° E
Cosmos 1151 Rocket 3.7 17:45:41 10° SSW 17:49:58 57° W 17:54:19 10° N
Okean-O 3.6 17:49:07 10° S 17:53:25 50° W 17:57:45 10° NNW
Cosmos 158 Rocket 4.5 17:51:41 10° SSW 17:56:54 61° WNW 18:02:01 10° NNE
FengYun 1-2 T 4.3 17:58:29 10° S 18:03:59 77° WSW 18:09:31 10° NNW
Cosmos 1420 Rocket 3.8 18:00:27 10° NNW 18:05:39 70° ENE 18:10:02 14° SSE
Cosmos 1634 Rocket 3.8 18:04:14 10° N 18:10:26 78° E 18:16:36 10° SSE
Cosmos 1844 Rocket 4.4 18:06:23 10° N 18:08:24 17° NNE 18:08:24 17° NNE
ATLAS 2AS CENTAUR R/B 3.9 18:04:24 10° SSE 18:09:49 27° ESE 18:09:49 27° ESE
Cosmos 1933 Rocket 4.1 18:07:35 10° NNW 18:11:51 57° W 18:16:07 10° S
Cosmos 2228 Rocket 3.2 18:08:05 10° SSW 18:12:33 78° W 18:16:06 17° N
Cosmos 1515 Rocket 4.5 18:08:41 10° SSW 18:12:55 48° WNW 18:17:09 10° N
ATLAS 3B R/B 3.9 18:07:56 10° NNW 18:12:57 22° NNE 18:12:57 22° NNE
Geosat 4.4 18:10:04 19° NNE 18:13:36 63° WNW 18:18:33 10° SW
Cosmos 1452 Rocket 3.4 18:09:39 10° NNW 18:14:57 67° ENE 18:16:37 43° SE
COSMO-SKYMED 1 3.2 18:11:02 10° N 18:15:17 54° WNW 18:19:30 10° SSW
USA 238 DEB 4.1 18:10:21 10° NNW 18:17:15 48° NE 18:18:44 43° ENE
USA 238 4.1 18:10:27 10° NNW 18:17:21 47° NE 18:18:47 43° ENE
ISS -2.1 18:14:11 10° SW 18:16:02 28° SSW 18:16:02 28° SSW
USA 116 4.4 18:14:06 16° N 18:18:09 83° WNW 18:23:26 10° SSW
COSMOS 2455 3.0 18:13:46 10° S 18:19:32 50° ESE 18:19:46 50° ESE
NOSS 3-2 (A) 4.3 18:12:56 10° NNW 18:20:04 47° NE 18:21:46 42° ENE
Cosmos 2142 Rocket 4.4 18:15:13 10° N 18:21:38 73° E 18:27:56 10° SSE
CSL-04 Debris 4.3 18:16:20 10° S 18:21:49 77° WSW 18:27:20 10° NNW
NOAA 11 4.0 18:18:39 10° SSE 18:24:03 79° ENE 18:29:31 10° N
Cosmos 2279 Rocket 3.9 18:20:02 10° N 18:26:13 64° E 18:32:23 10° SSE
Cosmos 1606 4.1 18:27:03 10° SW 18:30:33 37° WNW 18:32:01 26° NNW
Ariane Rocket 4.0 18:32:53 32° N 18:32:53 32° N 18:35:40 10° N
CSL-04 Rocket 4.0 18:26:03 10° S 18:31:20 64° WSW 18:36:37 10° NNW
SL-8 R/B 3.8 18:27:16 10° WSW 18:32:05 67° NNW 18:32:05 67° NNW
YAOGAN 1 3.5 18:32:31 10° S 18:36:42 47° W 18:40:54 10° NNW
CZ-4 R/B 3.1 18:33:41 10° SSW 18:37:25 33° W 18:41:08 10° NNW
Cosmos 2360 Rocket 3.6 18:40:06 10° S 18:42:21 24° S 18:42:21 24° S
USA 215 3.9 18:51:53 40° NNE 18:51:53 40° NNE 18:57:31 10° NW
Cosmos 1980 Rocket 4.2 18:47:23 10° WSW 18:51:52 23° NW 18:55:57 12° N
DELTA 2 R/B (1) 4.1 18:47:09 10° WSW 18:51:54 52° SSW 18:51:54 52° SSW
SL-16 R/B 2.5 18:47:34 10° SW 18:53:10 62° WNW 18:54:04 55° NNW
SeaSat 1 4.2 18:54:10 10° S 18:58:29 30° WSW 19:02:49 10° NW
Cosmos 2322 Rocket 2.4 18:53:20 10° SW 18:58:54 65° WNW 18:58:55 65° WNW
NOSS 3-2 (C) 4.2 19:00:00 10° NNW 19:06:16 54° NNE 19:06:16 54° NNE
Cosmos 2263 Rocket 3.8 19:08:19 10° NW 19:13:10 32° WSW 19:17:01 15° SSW
CENTAUR R/B 3.7 19:33:13 10° NNW 19:38:39 47° NNW 19:38:39 47° NNW
ATLAS 2AS CENTAUR R/B 4.1 19:53:06 10° SW 19:57:20 36° SW 19:57:20 36° SW
ATLAS 3B R/B 4.5 19:58:05 10° NNW 20:00:13 22° NNW 20:00:13 22° NNW
